Back to catalog

STARLINK-30874

AliveCommunicationsVLEO
NORAD 58227·PAYLOAD·🇺🇸 United States

Launched Nov 3, 2023 from Cape Canaveral Space Force Station

Loading…

Next Passes (next 24 hours)

TLE

FreshSource: CelesTrak SupGP

Epoch: Sep 14, 2026, 22:28 UTC

1 58227C 23170X   26257.93659722  .00001222  00000+0  44283-4 0  2570
2 58227  42.9998 205.5875 0001330 256.1922 356.8251 15.27573097    10

Track STARLINK-30874 in real time with AllMySat

Download on the App Store